Date String (YYYY-MM-DD hh:mm:ss) UTC,Instrument flags,absolute air pressure of the measurement (hPa),sample flow rate (lpm),inlet stack bypass flow (lpm),air temperature of the measurement (°C),ambient temperature measured by the external sensor (°C),aerosol sample conditioner tube jacket temperature (°C),OPC LED temperature (°C),internal box temperature (°C),relative humidity of the measurement (%),span deviation,mass concentration of particles derived from Lorenz-Mie calculation of OPC scattering (μg/m³),mass concentration of particles derived from Lorenz-Mie calculation of OPC scattering (μg/m³),mass concentration of particles derived from Lorenz-Mie calculation of OPC scattering (μg/m³)
DateTimeUTC,F1_M11,P_M11,Q1_M11,Q2_M11,T1_M11,T2_M11,T3_M11,T4_M11,T5_M11,U1_M11,ZSPAN_M11,X2_M11,X0_M11,X1_M11
2023-07-12 20:00:00,SystemResetWarning,0831.5,4.99,000.00,028.7,026.3,000.0,036.9,030.3,18.3,0000.0,0005.07,0014.04,0004.08
2023-07-12 20:01:00,SystemResetWarning,0831.5,5.01,000.00,028.6,024.9,000.0,036.8,030.1,18.4,0000.0,0005.12,0014.03,0004.09
2023-07-12 20:02:00,SystemResetWarning,0831.5,5.01,000.00,028.6,025.0,000.0,036.7,030.0,18.4,0000.0,0005.13,0014.20,0004.08
2023-07-12 20:03:00,SystemResetWarning,0831.5,5.00,000.00,028.5,025.4,000.0,036.8,029.9,18.9,0000.0,0005.09,0014.95,0004.07
2023-07-12 20:04:00,SystemResetWarning,0831.5,5.00,000.00,028.5,025.8,000.0,036.8,030.0,18.0,0000.0,0005.13,0015.24,0004.06
2023-07-12 20:05:00,SystemResetWarning,0831.5,5.00,000.00,028.5,026.3,000.0,036.8,030.1,17.7,0000.0,0005.13,0015.09,0004.06
2023-07-12 20:06:00,SystemResetWarning,0831.5,5.00,000.00,028.6,026.6,000.0,036.9,030.2,17.7,0000.0,0005.08,0015.03,0004.05
2023-07-12 20:07:00,SystemResetWarning,0831.5,4.99,000.00,028.6,027.0,000.0,036.9,030.3,17.7,0000.0,0005.08,0014.26,0004.05
2023-07-12 20:08:00,SystemResetWarning,0831.5,5.00,000.00,028.7,027.3,000.0,036.9,030.4,19.3,0000.0,0005.14,0014.05,0004.05
2023-07-12 20:09:00,SystemResetWarning,0831.5,4.99,000.00,028.7,027.1,000.0,036.9,030.4,18.5,0000.0,0005.20,0013.96,0004.06
2023-07-12 20:10:00,SystemResetWarning,0831.5,4.99,000.00,028.7,025.5,000.0,036.8,030.2,19.2,0000.0,0005.21,0014.64,0004.07
2023-07-12 20:11:00,SystemResetWarning,0831.5,5.01,000.00,028.6,024.8,000.0,036.7,030.0,19.4,0000.0,0005.22,0015.40,0004.07
2023-07-12 20:12:00,SystemResetWarning,0831.5,5.01,000.00,028.6,025.1,000.0,036.7,030.0,20.1,0000.0,0005.19,0015.30,0004.07
2023-07-12 20:13:00,SystemResetWarning,0831.5,5.00,000.00,028.5,025.5,000.0,036.8,030.0,21.0,0000.0,0005.16,0014.34,0004.09
2023-07-12 20:14:00,SystemResetWarning,0831.5,5.00,000.00,028.5,025.9,000.0,036.8,030.0,20.6,0000.0,0005.16,0013.79,0004.10
2023-07-12 20:15:00,SystemResetWarning,0831.5,4.99,000.00,028.6,026.4,000.0,036.8,030.2,21.8,0000.0,0005.17,0013.66,0004.12
2023-07-12 20:16:00,SystemResetWarning,0831.4,5.00,000.00,028.6,026.8,000.0,036.9,030.3,21.1,0000.0,0005.15,0013.93,0004.13
2023-07-12 20:17:00,SystemResetWarning,0831.5,5.00,000.00,028.6,027.1,000.0,036.9,030.3,22.0,0000.0,0005.23,0013.98,0004.13
2023-07-12 20:18:00,SystemResetWarning,0831.5,5.00,000.00,028.7,027.4,000.0,036.9,030.4,18.7,0000.0,0005.25,0014.44,0004.14
2023-07-12 20:19:00,SystemResetWarning,0831.5,4.98,000.00,028.7,026.6,000.0,036.9,030.3,18.9,0000.0,0005.23,0014.89,0004.15
2023-07-12 20:20:00,SystemResetWarning,0831.5,4.99,000.00,028.6,025.1,000.0,036.8,030.1,18.7,0000.0,0005.16,0015.11,0004.15
2023-07-12 20:21:00,SystemResetWarning,0831.4,5.02,000.00,028.6,025.0,000.0,036.7,030.0,20.2,0000.0,0005.13,0014.81,0004.15
2023-07-12 20:22:00,SystemResetWarning,0831.5,5.00,000.00,028.5,025.4,000.0,036.8,029.9,19.5,0000.0,0005.18,0015.35,0004.17
2023-07-12 20:23:00,SystemResetWarning,0831.4,5.00,000.00,028.5,025.8,000.0,036.8,029.9,18.3,0000.0,0005.23,0015.68,0004.18
2023-07-12 20:24:00,SystemResetWarning,0831.4,5.01,000.00,028.5,026.2,000.0,036.8,030.1,19.1,0000.0,0005.26,0016.98,0004.19
2023-07-12 20:25:00,SystemResetWarning,0831.5,4.99,000.00,028.6,026.6,000.0,036.9,030.2,18.8,0000.0,0005.34,0018.50,0004.21
2023-07-12 20:26:00,SystemResetWarning,0831.4,4.99,000.00,028.6,027.0,000.0,036.9,030.3,19.9,0000.0,0005.33,0018.13,0004.20
2023-07-12 20:27:00,SystemResetWarning,0831.5,5.01,000.00,028.7,027.3,000.0,036.9,030.4,19.6,0000.0,0005.35,0017.86,0004.21
2023-07-12 20:28:00,SystemResetWarning,0831.4,5.00,000.00,028.7,027.3,000.0,036.9,030.4,20.8,0000.0,0005.36,0018.19,0004.22
2023-07-12 20:29:00,SystemResetWarning,0831.4,4.98,000.00,028.7,025.9,000.0,036.9,030.2,22.4,0000.0,0005.40,0018.10,0004.22
2023-07-12 20:30:00,SystemResetWarning,0831.4,5.01,000.00,028.6,024.8,000.0,036.8,030.0,23.3,0000.0,0005.42,0018.37,0004.22
2023-07-12 20:31:00,SystemResetWarning,0831.4,5.02,000.00,028.6,025.1,000.0,036.7,029.9,22.0,0000.0,0005.47,0018.32,0004.23
2023-07-12 20:32:00,SystemResetWarning,0831.4,4.99,000.00,028.5,025.4,000.0,036.8,029.9,21.1,0000.0,0005.54,0018.04,0004.24
2023-07-12 20:33:00,SystemResetWarning,0831.5,5.00,000.00,028.5,025.9,000.0,036.8,030.0,21.5,0000.0,0005.57,0017.67,0004.25
2023-07-12 20:34:00,SystemResetWarning,0831.5,5.00,000.00,028.5,026.3,000.0,036.9,030.1,21.6,0000.0,0005.61,0017.38,0004.26
2023-07-12 20:35:00,SystemResetWarning,0831.5,5.00,000.00,028.6,026.7,000.0,036.9,030.2,22.0,0000.0,0005.64,0017.69,0004.25
2023-07-12 20:36:00,SystemResetWarning,0831.5,5.00,000.00,028.6,027.1,000.0,036.9,030.3,21.5,0000.0,0005.77,0016.27,0004.28
2023-07-12 20:37:00,SystemResetWarning,0831.5,5.00,000.00,028.7,027.2,000.0,036.9,030.4,21.3,0000.0,0005.96,0018.02,0004.32
2023-07-12 20:38:00,SystemResetWarning,0831.5,4.98,000.00,028.7,025.8,000.0,036.8,030.2,21.3,0000.0,0006.07,0019.78,0004.36
2023-07-12 20:39:00,SystemResetWarning,0831.5,5.02,000.00,028.6,024.6,000.0,036.8,030.0,20.2,0000.0,0006.10,0020.79,0004.38
2023-07-12 20:40:00,SystemResetWarning,0831.4,5.01,000.00,028.5,024.9,000.0,036.7,029.9,19.7,0000.0,0006.08,0021.50,0004.40
2023-07-12 20:41:00,SystemResetWarning,0831.4,4.99,000.00,028.5,025.3,000.0,036.8,029.9,21.2,0000.0,0006.10,0021.69,0004.41
2023-07-12 20:42:00,SystemResetWarning,0831.4,4.99,000.00,028.5,025.7,000.0,036.8,029.9,20.0,0000.0,0006.16,0021.52,0004.44
2023-07-12 20:43:00,SystemResetWarning,0831.4,5.01,000.00,028.5,026.2,000.0,036.8,030.1,19.9,0000.0,0006.21,0022.07,0004.45
2023-07-12 20:44:00,SystemResetWarning,0831.4,5.01,000.00,028.5,026.6,000.0,036.8,030.2,20.9,0000.0,0006.27,0021.70,0004.47
2023-07-12 20:45:00,SystemResetWarning,0831.4,5.00,000.00,028.6,027.0,000.0,036.9,030.3,21.1,0000.0,0006.26,0021.52,0004.48
2023-07-12 20:46:00,SystemResetWarning,0831.4,5.00,000.00,028.6,027.3,000.0,036.9,030.4,22.2,0000.0,0006.32,0021.49,0004.51
2023-07-12 20:47:00,SystemResetWarning,0831.4,5.00,000.00,028.7,027.5,000.0,036.9,030.5,20.7,-000.5,0006.30,0021.02,0004.52
2023-07-12 20:48:00,SystemResetWarning,0831.4,4.99,000.00,028.7,026.2,000.0,036.8,030.3,21.1,-000.3,0006.17,0020.60,0004.51
2023-07-12 20:49:00,SystemResetWarning,0831.3,5.01,000.00,028.6,024.8,000.0,036.8,030.1,22.4,0000.0,0006.11,0020.27,0004.50
2023-07-12 20:50:00,SystemResetWarning,0831.3,5.02,000.00,028.6,025.0,000.0,036.7,030.0,22.0,0000.0,0006.14,0019.98,0004.50
2023-07-12 20:51:00,SystemResetWarning,0831.3,5.01,000.00,028.5,025.3,000.0,036.8,029.9,23.2,0000.0,0006.19,0019.29,0004.50
2023-07-12 20:52:00,SystemResetWarning,0831.3,5.00,000.00,028.5,025.8,000.0,036.8,030.0,23.6,0000.0,0006.15,0018.97,0004.50
2023-07-12 20:53:00,SystemResetWarning,0831.3,5.00,000.00,028.5,026.2,000.0,036.8,030.1,23.5,0000.0,0006.10,0020.41,0004.48
2023-07-12 20:54:00,SystemResetWarning,0831.3,4.99,000.00,028.6,026.7,000.0,036.9,030.2,23.0,0000.0,0006.06,0020.76,0004.48
2023-07-12 20:55:00,SystemResetWarning,0831.3,4.99,000.00,028.6,027.0,000.0,036.9,030.3,22.3,0000.0,0006.07,0021.35,0004.48
2023-07-12 20:56:00,SystemResetWarning,0831.3,5.00,000.00,028.7,027.4,000.0,036.9,030.4,23.0,0000.0,0006.10,0022.35,0004.48
2023-07-12 20:57:00,SystemResetWarning,0831.3,4.99,000.00,028.7,027.2,000.0,036.9,030.5,23.1,0000.0,0006.08,0023.65,0004.48
2023-07-12 20:58:00,SystemResetWarning,0831.4,5.00,000.00,028.7,025.5,000.0,036.8,030.2,22.9,0000.0,0006.09,0023.82,0004.49
2023-07-12 20:59:00,SystemResetWarning,0831.3,5.01,000.00,028.6,024.8,000.0,036.7,030.1,23.1,0000.0,0006.03,0024.05,0004.50
